Flag for Germany Weather past 2 weeks in Rietberg, North Rhine-Westphalia, Germany

Now
61 °F

Fog.


Feels Like: 61 °F
Forecast: 58 / 76 °F
Wind: 7 mph from Southeast

Location: Paderborn / Lippstadt

Current Time: Sep 16, 2014 at 10:04:26 AM

Latest Report: Sep 16, 2014 at 9:20 AM


Visibility: 2 mi

Pressure: 30.04 "Hg

Humidity: 100%

Dew point: 61 °F

Location of RietbergLocation

Historic Weather in Rietberg — Graph

°F

Rietberg temperature yesterday

Maximum temperature yesterday: 68 °F (at 2:50 PM)
Minimum temperature yesterday: 55 °F (at 5:20 AM)
Average temperature yesterday: 62 °F

Past Weeks' High & Low Weather Summary

 TemperatureHumidityPressure
High75 °F (Sep 6, 2:20 PM)100% (Sep 1, 8:20 AM)30.27 "Hg (Sep 1, 8:20 AM)
Low45 °F (Sep 12, 3:50 AM)53% (Sep 6, 12:50 PM)29.89 "Hg (Sep 6, 3:20 PM)
Average59 °F86%30.10 "Hg
* Reported Sep 1 8:20 AM — Sep 16 8:50 AM, Rietberg, Weather by CustomWeather, © 2014

Note: Actual official high and low records may vary slightly from our data, if they occured in-between our weather recording intervals... More about our weather records

Advertising

Rietberg weather history for previous 24 hours

 ConditionsComfort  
Time TempWeatherWind HumidityBarometerVisibility
8:50 AM
Sep 16
61 °FFog.6 mph94%30.04 "Hg2 mi
8:20 AM59 °FFog.7 mph100%30.04 "Hg2 mi
7:50 AM59 °FFog.5 mph94%30.04 "Hg2 mi
7:20 AM57 °FFog.6 mph94%30.04 "Hg2 mi
6:50 AM57 °FFog.6 mph100%30.04 "Hg2 mi
6:20 AM57 °FFog.7 mph100%30.04 "Hg3 mi
5:50 AM57 °FFog.5 mph100%30.04 "Hg3 mi
5:20 AM59 °FClear.7 mph100%30.04 "Hg4 mi
4:50 AM57 °FFog.5 mph100%30.04 "Hg3 mi
4:20 AM57 °FClear.5 mph100%30.04 "Hg5 mi
12:50 AM61 °FClear.2 mph94%30.04 "Hg10 mi
12:20 AM59 °FClear.2 mph100%30.04 "Hg10 mi
11:50 PM
Sep 15
59 °FClear.3 mph100%30.07 "Hg10 mi
11:20 PM61 °FClear.3 mph94%30.07 "Hg10 mi
10:50 PM61 °FClear.5 mph94%30.04 "Hg10 mi
10:20 PM61 °FClear.5 mph94%30.04 "Hg10 mi
9:50 PM61 °FClear.5 mph94%30.04 "Hg10 mi
9:20 PM63 °FClear.6 mph88%30.04 "Hg10 mi
8:50 PM63 °FClear.5 mph88%30.04 "Hg10 mi
8:20 PM64 °FSunny.6 mph78%30.04 "Hg10 mi
7:50 PM64 °FSunny.5 mph78%30.04 "Hg10 mi
7:20 PM64 °FSunny.6 mph78%30.04 "Hg10 mi
6:50 PM64 °FSunny.5 mph78%30.04 "Hg10 mi
6:20 PM66 °FBroken clouds.5 mph73%30.04 "HgN/A
5:50 PM66 °FBroken clouds.7 mph73%30.04 "HgN/A
5:20 PM66 °FBroken clouds.9 mph68%30.04 "HgN/A
4:20 PM66 °FBroken clouds.6 mph73%30.04 "HgN/A
3:50 PM68 °FBroken clouds.7 mph69%30.04 "HgN/A
3:20 PM68 °FBroken clouds.9 mph64%30.04 "HgN/A
2:50 PM68 °FBroken clouds.8 mph69%30.07 "HgN/A
2:20 PM66 °FBroken clouds.9 mph73%30.07 "HgN/A
1:50 PM66 °FBroken clouds.9 mph73%30.07 "HgN/A
1:20 PM64 °FBroken clouds.8 mph78%30.07 "HgN/A
12:50 PM64 °FBroken clouds.8 mph78%30.07 "HgN/A
12:20 PM64 °FBroken clouds.8 mph78%30.07 "Hg5 mi
11:50 AM64 °FBroken clouds.9 mph78%30.07 "Hg5 mi
11:20 AM63 °FBroken clouds.6 mph88%30.07 "Hg5 mi
10:20 AM63 °FBroken clouds.6 mph88%30.07 "Hg5 mi
Weather by CustomWeather, © 2014

See weather overviewHow to use our weather pages